KO6OBR Weather Reports


time (UTC)temp
C
wind
direction
speed
KPH
gust
KPH
rain 1hr
cm
rain 24hr
cm
rain mn
cm
humidity
%
barometer
mb
20260902153229 23 30 0.0 0.0 0.00 0.00 0.00 53 1021.0
20260902152226 23 31 0.0 0.0 0.00 0.00 0.00 53 1021.0
20260902151223 23 38 0.0 0.0 0.00 0.00 0.00 52 1021.1
20260902150219 21 35 0.0 0.0 0.00 0.00 0.00 52 1020.9
20260902145218 20 20 0.0 1.6 0.00 0.00 0.00 50 1020.9
20260902144216 20 78 0.0 0.0 0.00 0.00 0.00 49 1020.7
20260902143211 18 38 0.0 0.0 0.00 0.00 0.00 52 1020.5
20260902142209 17 35 0.0 0.0 0.00 0.00 0.00 48 1020.2
20260902141204 16 27 0.0 0.0 0.00 0.00 0.00 48 1020.2
20260902140200 16 18 0.0 0.0 0.00 0.00 0.00 47 1020.3
20260902135201 15 30 0.0 0.0 0.00 0.00 0.00 44 1020.1
20260902134155 15 31 0.0 0.0 0.00 0.00 0.00 44 1020.3
20260902133150 15 34 0.0 0.0 0.00 0.00 0.00 43 1020.5
20260902132147 15 31 0.0 0.0 0.00 0.00 0.00 43 1020.5
20260902131144 15 29 0.0 0.0 0.00 0.00 0.00 47 1020.3
20260902130141 15 23 0.0 0.0 0.00 0.00 0.00 46 1020.5
20260902125137 15 26 0.0 0.0 0.00 0.00 0.00 48 1020.3
20260902124134 15 33 0.0 0.0 0.00 0.00 0.00 49 1020.5
20260902123130 15 28 0.0 0.0 0.00 0.00 0.00 51 1020.5
20260902122126 15 28 0.0 0.0 0.00 0.00 0.00 55 1020.7
20260902121127 15 34 0.0 0.0 0.00 0.00 0.00 58 1020.3
20260902120126 15 31 0.0 0.0 0.00 0.00 0.00 63 1020.6
20260902115122 16 30 0.0 0.0 0.00 0.00 0.00 62 1020.6
20260902114117 16 38 0.0 0.0 0.00 0.00 0.00 59 1020.6
20260902113114 16 33 0.0 0.0 0.00 0.00 0.00 54 1020.3
20260902112112 16 28 0.0 0.0 0.00 0.00 0.00 51 1020.6
20260902111109 16 36 0.0 0.0 0.00 0.00 0.00 51 1020.6
20260902110107 16 33 0.0 0.0 0.00 0.00 0.00 52 1020.7
20260902105107 16 41 0.0 0.0 0.00 0.00 0.00 52 1020.6
20260902104102 16 33 0.0 0.0 0.00 0.00 0.00 49 1020.7
20260902103058 16 28 0.0 0.0 0.00 0.00 0.00 50 1020.9
20260902102057 16 27 0.0 0.0 0.00 0.00 0.00 49 1021.0
20260902101056 16 31 0.0 0.0 0.00 0.00 0.00 50 1021.0
20260902100052 16 30 0.0 0.0 0.00 0.00 0.00 54 1021.1
20260902095050 16 38 0.0 0.0 0.00 0.00 0.00 58 1021.1
20260902094048 16 28 0.0 0.0 0.00 0.00 0.00 54 1020.9
20260902093042 16 31 0.0 0.0 0.00 0.00 0.00 53 1020.8
20260902092038 16 30 0.0 0.0 0.00 0.00 0.00 53 1020.8
20260902091035 16 29 0.0 0.0 0.00 0.00 0.00 53 1020.8
20260902090030 16 30 0.0 0.0 0.00 0.00 0.00 61 1020.7
20260902085025 17 27 0.0 0.0 0.00 0.00 0.00 68 1020.8
20260902084023 17 28 0.0 0.0 0.00 0.00 0.00 68 1020.9
20260902083018 17 26 0.0 0.0 0.00 0.00 0.00 69 1021.0
20260902082016 17 29 0.0 0.0 0.00 0.00 0.00 68 1021.0
20260902081012 17 33 0.0 0.0 0.00 0.00 0.00 67 1021.1
20260902080010 17 28 0.0 0.0 0.00 0.00 0.00 65 1021.1
20260902075006 18 30 0.0 0.0 0.00 0.00 0.00 64 1020.9
20260902074007 18 30 0.0 0.0 0.00 0.00 0.00 64 1020.6
20260902073005 18 33 0.0 0.0 0.00 0.00 0.00 66 1020.6
20260902072003 18 33 0.0 0.0 0.00 0.00 0.00 67 1020.3
20260902070958 18 32 0.0 0.0 0.00 0.00 0.00 68 1020.5
20260902065958 19 32 0.0 0.0 0.00 0.00 0.00 66 1020.5
20260902064954 19 28 0.0 0.0 0.00 0.00 0.00 67 1020.2
20260902063951 19 30 0.0 0.0 0.00 0.00 0.00 71 1020.3
20260902062947 19 33 0.0 0.0 0.00 0.00 0.00 74 1020.5
20260902061946 20 36 0.0 0.0 0.00 0.00 0.00 73 1020.3
20260902060943 20 25 0.0 0.0 0.00 0.00 0.00 72 1020.2
20260902055941 20 31 0.0 1.6 0.00 0.00 0.00 72 1020.3
20260902054937 20 26 0.0 0.0 0.00 0.00 0.00 71 1020.1
20260902053934 21 34 0.0 0.0 0.00 0.00 0.00 69 1020.3
20260902052928 21 33 0.0 1.6 0.00 0.00 0.00 68 1020.2
20260902051924 21 359 0.0 1.6 0.00 0.00 0.00 66 1020.2
20260902050923 21 13 0.0 0.0 0.00 0.00 0.00 66 1020.1
20260902045918 21 22 0.0 1.6 0.00 0.00 0.00 65 1019.9
20260902044915 21 32 0.0 1.6 0.00 0.00 0.00 63 1019.8
20260902043912 21 21 0.0 1.6 0.00 0.00 0.00 63 1019.5
20260902042908 22 11 1.6 3.2 0.00 0.00 0.00 61 1019.7
20260902041903 22 36 0.0 3.2 0.00 0.00 0.00 59 1019.5
20260902040901 22 41 1.6 3.2 0.00 0.00 0.00 59 1019.4
20260902035856 22 353 1.6 1.6 0.00 0.00 0.00 59 1019.3
20260902034850 22 28 0.0 3.2 0.00 0.00 0.00 57 1018.9
20260902033850 23 24 1.6 3.2 0.00 0.00 0.00 56 1018.9
20260902032844 23 29 0.0 1.6 0.00 0.00 0.00 55 1018.6
20260902031844 23 37 0.0 0.0 0.00 0.00 0.00 55 1018.8
20260902030842 23 348 0.0 3.2 0.00 0.00 0.00 54 1018.6
20260902025841 24 28 0.0 1.6 0.00 0.00 0.00 53 1018.6
20260902024837 25 37 0.0 1.6 0.00 0.00 0.00 52 1018.5
20260902023834 25 26 0.0 3.2 0.00 0.00 0.00 51 1018.4
20260902022834 25 40 0.0 3.2 0.00 0.00 0.00 51 1018.4
20260902021832 25 359 1.6 4.8 0.00 0.00 0.00 50 1018.4
20260902020828 25 32 1.6 6.4 0.00 0.00 0.00 50 1018.2
20260902015825 26 17 1.6 4.8 0.00 0.00 0.00 48 1018.2
20260902014822 27 69 3.2 4.8 0.00 0.00 0.00 46 1018.4
20260902013817 27 5 1.6 6.4 0.00 0.00 0.00 46 1018.3
20260902012814 28 295 1.6 6.4 0.00 0.00 0.00 45 1018.3
20260902011811 28 78 0.0 1.6 0.00 0.00 0.00 44 1018.2
20260902010810 28 357 3.2 6.4 0.00 0.00 0.00 43 1018.5
20260902005805 28 293 0.0 3.2 0.00 0.00 0.00 43 1018.4
20260902004800 29 25 1.6 4.8 0.00 0.00 0.00 42 1018.3
20260902003756 30 273 3.2 11.3 0.00 0.00 0.00 41 1018.5
20260902002753 30 90 3.2 12.9 0.00 0.00 0.00 40 1018.4
20260902001748 30 48 1.6 6.4 0.00 0.00 0.00 40 1018.5
20260902000749 31 55 4.8 11.3 0.00 0.00 0.00 39 1018.4
20260901235744 31 5 0.0 6.4 0.00 0.00 0.00 38 1018.3
20260901234744 30 353 1.6 4.8 0.00 0.00 0.00 37 1018.4
20260901233739 31 254 3.2 4.8 0.00 0.00 0.00 35 1018.4
20260901232736 31 18 1.6 3.2 0.00 0.00 0.00 36 1018.4
20260901231733 31 355 1.6 3.2 0.00 0.00 0.00 35 1018.4
20260901230731 31 15 3.2 4.8 0.00 0.00 0.00 35 1018.5
20260901225726 31 1 1.6 11.3 0.00 0.00 0.00 35 1018.5
20260901224722 31 10 1.6 4.8 0.00 0.00 0.00 34 1018.5
20260901223720 31 186 3.2 14.5 0.00 0.00 0.00 34 1018.5
20260901222716 32 80 1.6 6.4 0.00 0.00 0.00 32 1018.7
20260901221714 32 16 1.6 4.8 0.00 0.00 0.00 29 1018.7
20260901220715 32 277 3.2 6.4 0.00 0.00 0.00 28 1018.8
20260901215713 32 18 1.6 3.2 0.00 0.00 0.00 33 1018.8
20260901214711 32 51 1.6 3.2 0.00 0.00 0.00 31 1018.9
20260901213711 32 7 3.2 4.8 0.00 0.00 0.00 31 1019.0
20260901212712 32 13 1.6 6.4 0.00 0.00 0.00 31 1019.1
20260901211708 31 38 0.0 6.4 0.00 0.00 0.00 31 1019.2
20260901210706 31 328 1.6 3.2 0.00 0.00 0.00 33 1019.2
20260901205702 31 234 1.6 4.8 0.00 0.00 0.00 36 1019.3
20260901204658 32 43 0.0 4.8 0.00 0.00 0.00 32 1019.2
20260901203654 32 323 1.6 6.4 0.00 0.00 0.00 30 1019.5
20260901202654 31 11 0.0 4.8 0.00 0.00 0.00 31 1019.6
20260901201652 31 336 3.2 4.8 0.00 0.00 0.00 31 1019.7
20260901200650 31 43 0.0 4.8 0.00 0.00 0.00 31 1019.9
20260901195649 30 58 0.0 1.6 0.00 0.00 0.00 34 1020.1
20260901194645 30 338 1.6 4.8 0.00 0.00 0.00 34 1020.0
20260901193642 30 12 0.0 4.8 0.00 0.00 0.00 37 1020.0
20260901192642 30 3 1.6 4.8 0.00 0.00 0.00 39 1020.2
20260901191639 30 10 0.0 1.6 0.00 0.00 0.00 37 1020.1
20260901190637 29 22 1.6 4.8 0.00 0.00 0.00 42 1020.5
20260901185635 28 25 1.6 1.6 0.00 0.00 0.00 41 1020.6
20260901184629 28 260 1.6 3.2 0.00 0.00 0.00 45 1020.6
20260901183625 28 22 1.6 1.6 0.00 0.00 0.00 48 1020.5
20260901182623 28 22 0.0 1.6 0.00 0.00 0.00 46 1020.5
20260901181622 28 22 1.6 3.2 0.00 0.00 0.00 47 1020.8
20260901180621 27 21 0.0 1.6 0.00 0.00 0.00 49 1020.7
20260901175620 27 38 0.0 1.6 0.00 0.00 0.00 51 1020.9
20260901174617 27 270 1.6 3.2 0.00 0.00 0.00 53 1020.9
20260901173612 26 31 0.0 3.2 0.00 0.00 0.00 54 1020.9
20260901172610 26 21 0.0 3.2 0.00 0.00 0.00 54 1020.6
20260901171607 26 25 0.0 1.6 0.00 0.00 0.00 56 1020.6
20260901170606 26 16 0.0 3.2 0.00 0.00 0.00 56 1020.5
20260901165607 25 22 1.6 3.2 0.00 0.00 0.00 59 1020.5
20260901164603 26 41 0.0 3.2 0.00 0.00 0.00 57 1020.3
20260901163600 24 26 0.0 1.6 0.00 0.00 0.00 60 1020.3
20260901162600 25 24 0.0 1.6 0.00 0.00 0.00 60 1020.6
20260901161558 23 22 0.0 1.6 0.00 0.00 0.00 63 1020.5
20260901160555 24 317 0.0 1.6 0.00 0.00 0.00 61 1020.6
20260901155554 23 37 0.0 1.6 0.00 0.00 0.00 63 1020.5
20260901154550 23 102 3.2 3.2 0.00 0.00 0.00 63 1020.2